Home   Weather   Vienna   Past weeks

Flag for Austria Past Weather in Vienna, Vienna, Austria — Yesterday and Last 2 Weeks

Now
58 °F

Cool.


Feels Like: 58 °F
Forecast: 53 / 67 °F
Wind: No wind

Location: Wien / Hohe Warte

Current Time: Oct 1, 2016 at 2:02:37 AM

Latest Report: Oct 1, 2016 at 1:00 AM


Visibility: N/A

Pressure: 29.97 "Hg

Humidity: 84%

Dew Point: 53 °F

Location of ViennaLocation

Past Weather in Vienna — Graph

°F

Vienna Temperature Yesterday

Maximum temperature yesterday: 81 °F (at 3:00 PM)
Minimum temperature yesterday: 53 °F (at 6:00 AM)
Average temperature yesterday: 66 °F

High & Low Weather Summary for the Past Weeks

 TemperatureHumidityPressure
High81 °F (Sep 29, 3:00 PM)95% (Sep 16, 6:00 AM)30.38 "Hg (Sep 16, 6:00 AM)
Low44 °F (Sep 23, 7:00 AM)28% (Sep 29, 3:00 PM)29.75 "Hg (Sep 17, 6:00 AM)
Average62 °F68%30.10 "Hg
* Reported Sep 16 1:00 AM — Oct 1 1:00 AM, Vienna, Weather by CustomWeather, © 2016

Note: Actual official high and low records may vary slightly from our data, if they occured in-between our weather recording intervals... More about our weather records

Advertising

Vienna Weather History for the Previous 24 Hours

Scroll right to see more
 ConditionsComfort  
Time TempWeatherWind HumidityBarometerVisibility
1:00 AM
Sat, Oct 1
58 °FCool.No wind84%29.97 "HgN/A
12:00 AM59 °FCool.No wind81%29.97 "HgN/A
11:00 PM
Fri, Sep 30
61 °FCool.1 mph77%29.98 "HgN/A
10:00 PM63 °FPassing clouds.1 mph72%29.98 "Hg10 mi
9:00 PM66 °FPassing clouds.2 mph65%29.98 "Hg7 mi
8:00 PM69 °FPassing clouds.1 mph58%29.97 "Hg10 mi
7:00 PM72 °FPassing clouds.2 mph51%29.96 "Hg10 mi
6:00 PM75 °FPartly sunny.5 mph46%29.96 "Hg31 mi
5:00 PM77 °FWarm.3 mph43%29.96 "HgN/A
4:00 PM80 °FPartly sunny.1 mph32%29.96 "Hg31 mi
3:00 PM81 °FPassing clouds.3 mph33%29.98 "Hg31 mi
2:00 PM80 °FPassing clouds.5 mph33%30.01 "Hg19 mi
1:00 PM79 °FPleasantly warm.3 mph37%30.02 "HgN/A
12:00 PM75 °FMild.2 mph48%30.04 "HgN/A
11:00 AM71 °FMild.2 mph56%30.06 "HgN/A
10:00 AM64 °FScattered clouds.1 mph69%30.07 "Hg19 mi
9:00 AM61 °FPartly sunny.1 mph77%30.06 "Hg19 mi
8:00 AM56 °FPartly sunny.1 mph88%30.06 "Hg19 mi
7:00 AM54 °FPartly sunny.No wind90%30.05 "Hg16 mi
6:00 AM53 °FPassing clouds.1 mph90%30.05 "Hg9 mi
5:00 AM54 °FCool.1 mph89%30.05 "HgN/A
3:00 AM56 °FCool.2 mph80%30.06 "HgN/A
2:00 AM56 °FClear.1 mph82%30.06 "Hg19 mi
Weather by CustomWeather, © 2016

See weather overviewHow to use our weather pages